Temp
19 21 20 18 17 17 17 17 17 16 16 16 16 16 15 15 15 15 15 14 15 15 15 15 15 15 15 14 15 15 16 16 16 16 16 16 16 16 15 14 14 14 13
20 20 19 17 17 17 17 17 17 16 15 15 14 15 15 15 15 15 15 15 15 14 15 15 15 15 15 15 15 15 15 15 15 15 15 15 15 15 15 14 14 14 14
19 20 19 16 16 17 17 16 16 15 14 14 14 15 15 15 16 16 15 15 15 14 14 15 15 15 15 14 15 15 15 15 15 14 13 13 14 15 14 14 14 14 14
18 18 18 17 16 17 17 16 16 15 14 15 16 16 15 16 15 15 15 15 15 14 15 15 15 15 15 15 15 15 15 14 13 13 13 13 13 14 14 14 13 13 13
18 17 18 16 17 17 16 16 15 14 14 16 16 15 16 16 15 15 15 15 15 14 14 14 15 15 15 15 15 14 14 13 13 13 13 13 13 14 14 13 14 13 13
18 17 18 17 17 16 15 15 15 15 14 15 15 16 16 15 14 14 15 14 15 15 14 14 15 15 15 14 14 14 13 13 13 13 13 13 13 13 13 13 13 13 13
18 18 18 17 17 16 15 15 14 15 14 13 16 16 16 15 15 15 14 13 14 14 14 15 15 15 14 14 14 14 14 13 13 13 13 14 13 13 13 14 13 13 13
19 18 18 17 17 16 15 15 14 14 14 13 15 16 16 16 17 15 15 14 14 14 15 15 15 15 14 14 14 14 14 13 13 13 13 13 13 13 13 13 13 13 13
18 17 18 17 16 15 14 14 14 15 14 14 15 16 16 17 17 17 15 15 15 15 15 16 15 15 15 14 14 14 14 13 13 12 12 12 13 13 13 13 13 13 13
18 17 17 17 17 15 14 14 14 14 14 14 15 16 16 17 17 16 16 16 15 16 16 16 15 15 15 14 14 14 13 13 13 12 12 12 13 13 13 13 13 13 13
17 17 17 16 16 15 15 15 14 14 14 15 15 16 16 17 17 16 15 15 15 16 16 16 15 15 15 14 14 14 13 12 12 12 12 12 13 12 12 12 12 13 13
17 17 17 17 16 15 15 15 16 16 16 15 16 16 17 17 16 16 16 16 15 15 16 15 15 15 15 15 14 14 13 13 12 12 12 12 13 12 12 12 12 12 12
17 17 17 17 16 16 15 15 16 17 17 16 14 16 17 15 14 15 16 16 16 16 16 15 15 15 14 15 14 14 13 13 12 12 12 12 13 13 12 12 12 12 12
18 17 17 17 16 16 15 15 15 16 16 16 15 15 16 14 14 14 15 16 16 16 15 15 15 14 14 13 13 13 13 13 12 12 12 12 12 13 12 12 12 12 12
16 17 17 16 16 16 15 15 15 15 15 15 15 15 15 14 14 14 15 14 15 15 14 13 13 14 13 13 13 13 13 13 13 12 12 12 12 13 12 12 12 12 11
16 16 16 18 17 16 15 15 15 16 16 15 15 15 14 14 14 14 14 14 14 14 13 13 13 12 12 13 13 13 13 12 12 12 12 12 12 12 12 12 12 11 11
18 18 17 18 18 17 15 15 15 15 15 15 15 14 15 14 14 14 14 14 14 13 14 13 13 13 12 12 13 13 13 12 12 11 12 12 13 12 12 12 12 11 11
19 18 17 18 18 17 17 15 16 15 15 15 15 15 14 15 14 14 14 14 14 13 13 13 13 12 12 12 12 13 13 12 12 12 11 12 12 12 12 12 12 11 10
18 18 18 18 17 16 16 16 16 16 16 15 14 15 14 14 14 14 14 14 14 13 13 13 13 12 12 12 12 12 12 12 12 12 11 11 12 12 12 12 11 11 11
18 18 17 17 17 17 17 16 16 16 17 16 16 14 14 14 15 14 14 14 14 13 13 13 13 12 12 12 12 11 11 11 12 12 11 11 11 11 12 12 11 11 11
17 17 17 17 17 17 17 17 16 16 16 16 17 17 15 14 15 15 15 15 14 13 13 13 13 12 12 11 11 11 11 11 11 11 11 11 11 11 11 12 12 11 11
16 16 16 16 16 16 16 16 16 16 16 16 16 17 17 16 14 14 14 15 15 14 13 13 13 13 12 12 11 10 10 10 11 11 11 11 11 11 11 11 11 11 10
13 14 14 15 15 15 15 15 16 16 15 14 15 16 17 17 15 14 13 13 15 15 14 13 13 13 13 12 11 11 10 11 12 12 12 11 11 10 11 11 11 11 10
12 13 13 13 14 14 15 14 14 14 15 14 14 14 14 15 15 15 14 13 13 13 13 13 12 12 11 11 11 11 11 12 11 11 11 11 10 10 10 10 10 10 9
11 12 12 13 13 12 13 13 14 14 14 14 14 13 13 13 13 13 13 13 12 12 13 12 12 12 11 11 12 12 11 11 11 12 12 12 10 9 9 10 10 9 9
11 11 12 12 12 11 11 11 11 12 13 13 13 13 13 13 13 13 12 12 12 11 11 11 11 11 11 11 11 10 11 11 11 10 11 11 11 11 10 8 8 7 6
Height
1523 1525 1527 1530 1533 1535 1538 1540 1542 1544 1545 1546 1547 1547 1548 1549 1549 1549 1549 1550 1552 1552 1553 1553 1554 1555 1556 1557 1558 1559 1560 1562 1563 1563 1562 1562 1562 1561 1561 1561 1560 1562 1563
1522 1525 1528 1530 1533 1536 1539 1541 1543 1545 1546 1547 1547 1547 1548 1548 1548 1548 1549 1550 1552 1553 1555 1555 1556 1556 1557 1558 1559 1560 1561 1563 1563 1563 1563 1563 1563 1562 1563 1563 1562 1562 1563
1522 1524 1528 1531 1534 1537 1539 1541 1543 1545 1546 1546 1546 1547 1548 1548 1548 1549 1550 1551 1553 1555 1556 1557 1557 1557 1558 1558 1559 1561 1563 1564 1565 1564 1564 1565 1565 1564 1564 1564 1564 1564 1564
1522 1525 1528 1531 1535 1537 1540 1542 1544 1546 1546 1546 1546 1546 1548 1549 1550 1550 1552 1553 1555 1556 1558 1559 1559 1558 1558 1559 1560 1562 1564 1565 1566 1567 1567 1567 1567 1566 1566 1565 1565 1565 1565
1524 1526 1529 1532 1535 1537 1540 1543 1545 1546 1546 1546 1546 1547 1549 1550 1552 1552 1553 1555 1556 1559 1560 1560 1560 1560 1560 1561 1562 1563 1565 1566 1567 1568 1568 1569 1568 1568 1567 1567 1566 1567 1566
1526 1527 1530 1532 1535 1538 1541 1543 1546 1546 1547 1546 1547 1548 1549 1551 1553 1554 1555 1557 1559 1561 1561 1562 1562 1562 1562 1563 1563 1565 1566 1567 1568 1569 1569 1569 1569 1569 1569 1569 1568 1569 1568
1526 1529 1531 1533 1535 1538 1541 1543 1545 1547 1547 1547 1548 1549 1550 1552 1552 1554 1556 1558 1560 1561 1562 1562 1562 1563 1564 1565 1565 1566 1567 1568 1569 1570 1571 1570 1570 1569 1570 1570 1570 1570 1569
1527 1529 1531 1533 1536 1539 1541 1543 1545 1547 1548 1547 1548 1550 1551 1552 1553 1554 1556 1558 1559 1561 1562 1563 1563 1564 1565 1566 1566 1567 1568 1569 1570 1570 1572 1571 1570 1570 1570 1570 1570 1570 1569
1529 1528 1530 1533 1535 1538 1541 1543 1545 1546 1548 1548 1550 1550 1551 1552 1553 1555 1556 1558 1560 1561 1562 1563 1564 1565 1566 1566 1567 1569 1569 1570 1571 1570 1571 1571 1570 1570 1570 1569 1569 1569 1569
1531 1530 1531 1533 1535 1537 1541 1542 1545 1546 1548 1548 1550 1551 1551 1553 1553 1554 1556 1558 1560 1561 1562 1563 1564 1565 1566 1567 1568 1569 1570 1571 1571 1571 1571 1570 1570 1569 1570 1569 1568 1567 1567
1530 1533 1532 1533 1535 1537 1540 1542 1544 1545 1546 1547 1548 1550 1551 1553 1554 1555 1555 1557 1559 1561 1562 1563 1564 1565 1566 1567 1568 1569 1570 1571 1573 1571 1571 1570 1569 1569 1569 1568 1567 1567 1567
1530 1533 1535 1535 1535 1537 1541 1542 1543 1544 1545 1545 1547 1549 1550 1551 1553 1554 1556 1557 1558 1560 1561 1562 1563 1564 1565 1566 1567 1568 1570 1570 1572 1571 1570 1570 1569 1568 1568 1568 1567 1567 1566
1527 1532 1535 1537 1537 1539 1541 1541 1541 1542 1543 1544 1546 1548 1549 1550 1552 1553 1554 1556 1557 1558 1560 1562 1563 1563 1564 1564 1565 1567 1567 1569 1571 1569 1570 1569 1568 1567 1567 1567 1566 1566 1566
1526 1527 1530 1533 1537 1538 1538 1539 1540 1540 1542 1544 1544 1545 1548 1550 1551 1553 1553 1554 1556 1557 1558 1560 1561 1562 1563 1564 1564 1564 1565 1566 1568 1566 1567 1567 1566 1567 1566 1565 1565 1566 1566
1524 1525 1528 1530 1532 1535 1536 1538 1541 1542 1542 1543 1545 1546 1547 1550 1550 1550 1551 1551 1553 1554 1556 1556 1559 1560 1560 1563 1563 1564 1563 1563 1564 1563 1564 1565 1564 1564 1564 1564 1564 1564 1565
1524 1524 1524 1527 1529 1530 1533 1536 1538 1541 1543 1543 1544 1545 1547 1548 1549 1550 1550 1550 1550 1553 1554 1555 1557 1558 1558 1559 1560 1561 1561 1562 1562 1560 1559 1561 1562 1562 1562 1562 1562 1562 1563
1521 1522 1522 1524 1527 1528 1530 1533 1535 1538 1540 1541 1542 1543 1544 1546 1547 1548 1549 1550 1550 1550 1553 1554 1555 1554 1554 1554 1556 1558 1558 1559 1559 1559 1556 1555 1557 1559 1559 1559 1560 1560 1561
1520 1522 1523 1523 1524 1526 1528 1530 1532 1534 1537 1539 1540 1540 1540 1541 1543 1544 1544 1546 1548 1549 1549 1550 1551 1551 1550 1551 1552 1553 1555 1555 1555 1556 1556 1554 1553 1555 1556 1556 1556 1557 1558
1518 1519 1520 1522 1524 1523 1525 1528 1528 1531 1532 1533 1536 1537 1537 1537 1538 1539 1540 1540 1543 1545 1545 1546 1547 1548 1547 1547 1548 1551 1551 1551 1552 1553 1552 1551 1549 1550 1552 1553 1553 1554 1555
1512 1515 1517 1519 1521 1523 1524 1525 1525 1525 1528 1529 1529 1531 1533 1533 1534 1533 1535 1536 1537 1539 1540 1540 1540 1542 1542 1544 1544 1546 1546 1547 1547 1547 1547 1548 1548 1546 1546 1548 1549 1550 1551
1507 1509 1511 1513 1516 1518 1519 1521 1520 1519 1520 1522 1524 1526 1526 1528 1528 1529 1529 1529 1531 1532 1533 1534 1535 1536 1537 1538 1541 1542 1541 1541 1541 1541 1542 1542 1542 1542 1542 1541 1543 1545 1546
1505 1506 1507 1509 1511 1512 1514 1516 1517 1515 1514 1516 1516 1518 1520 1521 1522 1523 1523 1523 1525 1525 1526 1527 1527 1527 1529 1531 1533 1535 1535 1535 1533 1535 1535 1536 1536 1536 1537 1537 1537 1539 1541
1501 1502 1503 1504 1504 1505 1507 1507 1508 1509 1509 1508 1509 1510 1511 1514 1516 1517 1517 1518 1518 1519 1519 1521 1521 1520 1521 1523 1524 1526 1528 1524 1525 1526 1527 1528 1530 1529 1530 1532 1532 1533 1534
1500 1500 1500 1500 1500 1500 1502 1502 1503 1503 1504 1506 1505 1504 1505 1506 1508 1510 1512 1511 1512 1511 1511 1513 1515 1515 1515 1515 1517 1517 1519 1519 1518 1518 1519 1519 1522 1522 1522 1524 1526 1527 1527
1499 1499 1499 1498 1498 1498 1497 1497 1497 1497 1498 1499 1501 1501 1502 1502 1501 1501 1502 1504 1505 1505 1505 1507 1508 1509 1508 1508 1507 1508 1511 1513 1513 1512 1511 1511 1513 1514 1516 1517 1519 1521 1521
1497 1497 1496 1495 1495 1495 1495 1495 1495 1494 1494 1494 1494 1495 1496 1497 1498 1498 1497 1497 1498 1497 1498 1499 1501 1501 1501 1500 1499 1500 1501 1502 1503 1505 1505 1506 1508 1509 1510 1512 1513 1516 1518
Wind_Speed
11 17 16 18 17 15 11 11 9 8 7 5 4 3 1 1 1 2 1 4 5 7 9 9 6 4 4 4 4 4 6 4 6 9 10 10 10 10 9 9 8 8 7
12 19 18 18 16 14 12 12 11 9 8 4 3 4 4 1 1 2 3 6 9 10 10 11 10 6 3 3 3 4 5 5 8 9 11 13 12 12 11 9 8 7 4
14 20 19 17 15 13 12 12 10 8 7 3 2 3 2 2 3 8 9 10 12 11 9 8 9 7 5 4 4 3 4 7 11 18 17 15 12 12 12 11 11 11 9
13 19 18 18 16 16 12 10 9 8 4 4 1 4 4 6 11 11 11 12 12 11 8 6 8 8 7 8 7 6 8 12 16 15 13 8 8 9 9 11 9 8 9
11 15 17 18 17 16 12 9 9 6 3 5 5 6 7 12 11 9 10 10 10 11 4 4 7 8 10 11 12 13 14 16 15 10 6 4 6 8 10 11 11 8 8
11 17 13 17 17 15 13 12 8 4 4 4 6 7 9 13 11 10 10 11 10 7 3 3 6 8 9 10 11 12 14 15 15 8 7 7 8 9 8 9 14 13 11
16 14 10 16 17 16 13 12 10 7 6 4 5 8 9 12 11 10 10 11 10 7 2 2 6 7 8 8 9 10 12 15 15 8 6 2 5 4 3 2 3 3 3
12 11 11 16 17 15 13 11 10 8 7 6 5 8 8 9 8 10 9 9 9 6 2 3 5 6 6 6 7 8 12 14 11 3 3 0 1 1 4 5 4 3 1
9 7 10 17 18 16 13 11 11 9 7 5 3 7 7 8 7 8 10 7 7 5 3 5 5 4 4 4 5 7 10 13 9 2 1 1 3 4 4 4 5 4 4
13 7 4 13 14 14 14 13 11 10 10 7 5 5 6 6 7 8 9 10 8 6 6 6 5 3 2 3 4 6 9 8 4 4 3 4 5 4 5 5 5 4 3
11 13 7 7 4 11 11 11 11 10 10 11 8 5 6 6 6 8 10 10 8 8 8 7 6 4 2 2 3 5 7 7 3 5 7 8 7 6 6 7 7 5 3
15 14 12 8 4 5 6 11 10 11 11 11 9 6 7 7 7 8 7 8 9 10 10 9 7 5 4 4 3 4 4 5 6 9 10 10 9 7 7 8 7 4 3
21 15 13 15 11 14 14 12 9 11 11 12 9 6 8 5 9 9 9 10 11 11 10 9 8 7 6 4 5 6 5 6 6 12 12 10 10 8 6 6 5 4 2
16 24 24 17 15 13 14 14 8 9 6 7 8 11 9 12 14 11 12 11 13 13 12 11 10 10 11 11 10 7 8 8 10 12 12 12 11 9 7 6 5 4 3
11 13 21 22 19 18 17 13 14 10 12 7 12 16 14 15 17 15 11 12 11 13 8 12 10 10 11 12 12 11 12 9 10 14 13 13 12 11 10 8 6 6 4
12 11 12 19 22 20 18 18 13 16 17 17 18 20 19 18 20 19 15 15 16 13 14 13 14 13 18 15 15 15 14 12 11 15 15 15 13 13 11 10 8 7 6
13 11 14 12 13 20 20 19 20 17 18 19 17 19 18 23 23 22 21 21 20 20 18 20 21 21 21 18 18 18 16 15 15 15 17 17 14 12 13 12 10 9 8
13 10 12 15 15 16 19 20 21 23 19 19 17 18 20 19 25 26 25 24 23 23 23 22 24 24 23 22 22 20 20 19 18 17 17 19 18 15 13 14 12 12 11
16 18 17 16 12 15 14 18 25 20 23 20 19 22 22 23 23 23 28 27 26 27 26 27 25 26 27 27 25 22 22 22 20 19 20 20 21 19 15 14 14 14 14
16 18 20 19 19 22 17 18 24 27 24 25 26 23 23 26 26 27 27 28 29 27 30 31 31 29 30 28 26 23 24 24 23 22 22 22 22 22 21 18 16 16 17
17 18 18 20 20 19 20 22 24 28 30 30 27 29 27 29 31 31 33 33 32 31 32 33 33 32 32 29 23 25 26 29 27 27 25 24 25 24 23 24 21 19 19
20 22 23 22 22 23 25 27 26 24 31 33 35 34 32 31 30 32 34 35 35 35 35 36 37 35 34 32 31 26 25 30 32 31 29 28 28 27 25 26 26 23 22
11 14 17 22 24 25 26 28 31 33 22 26 32 36 36 33 36 31 33 36 37 37 37 38 39 39 38 37 36 30 13 18 18 25 31 33 32 32 30 28 28 27 26
5 3 5 6 8 13 22 30 32 32 33 23 25 26 29 31 31 30 35 38 37 38 37 37 39 42 42 41 37 40 36 18 14 13 22 27 33 35 34 31 30 29 29
6 5 5 6 5 8 10 11 15 22 28 31 28 22 24 28 30 31 33 30 37 36 38 37 37 39 42 46 45 43 42 39 24 26 25 25 30 34 35 34 32 31 32
8 8 9 9 9 9 11 11 12 13 14 18 22 26 27 26 26 26 29 31 28 31 36 39 39 40 41 44 48 46 45 43 47 35 28 27 26 27 31 34 33 32 32
Wind_Direction
201 175 162 150 149 145 146 140 133 123 120 129 153 171 136 194 325 306 55 125 118 101 89 78 96 78 78 108 111 80 81 54 28 22 26 27 37 54 68 71 65 118 116
185 167 160 151 148 149 148 139 137 136 146 148 159 195 213 274 335 3 85 118 123 118 106 81 69 65 80 132 111 79 70 50 46 41 39 45 52 64 69 69 65 92 103
182 165 162 154 153 152 149 153 152 140 142 177 245 193 167 99 65 101 109 123 128 127 123 73 48 44 62 119 129 103 70 65 70 61 43 30 51 68 74 71 70 76 76
177 158 162 156 155 154 160 157 150 152 200 247 270 155 125 100 94 104 109 121 125 136 116 56 30 41 77 85 99 99 94 93 90 81 83 55 35 54 65 63 64 76 75
174 158 161 152 156 155 159 156 153 160 191 117 97 117 114 118 111 117 119 123 126 124 115 30 32 69 84 89 92 94 97 95 84 69 103 136 44 64 67 63 65 77 67
149 178 165 160 158 158 150 149 158 172 172 120 115 126 131 136 146 128 120 116 134 139 167 19 61 90 95 93 94 101 104 97 90 75 60 76 76 79 91 89 71 77 67
175 187 183 166 164 159 159 160 165 177 175 167 107 133 141 153 155 156 150 141 152 174 182 58 99 103 100 96 95 102 105 96 87 90 84 36 96 71 65 57 24 20 44
184 207 205 177 172 172 165 167 167 176 187 181 124 141 152 160 159 170 173 174 171 178 157 110 115 108 101 95 98 104 111 102 98 127 78 247 181 277 328 326 323 314 279
173 230 184 181 178 184 176 177 175 190 203 188 143 153 164 169 164 166 185 184 181 179 167 148 133 118 99 100 111 115 119 115 122 175 166 326 293 301 323 326 327 292 276
166 204 220 189 199 177 181 181 190 201 210 235 232 167 167 179 175 168 176 183 189 190 181 162 151 134 111 110 115 119 126 126 137 181 254 289 289 281 312 314 324 293 287
170 168 197 233 211 185 195 212 197 200 215 228 206 179 182 184 190 181 180 184 199 198 190 178 174 170 155 136 136 129 136 118 60 238 266 278 281 279 302 308 317 328 337
164 172 185 204 219 157 191 239 238 225 227 229 209 211 198 197 201 204 198 203 200 202 203 194 196 197 194 175 169 159 162 151 185 235 254 271 280 280 291 300 307 320 335
160 178 184 186 199 191 202 229 241 224 227 230 228 199 205 199 247 235 218 216 219 225 223 213 214 211 216 210 191 203 204 207 194 241 258 274 281 279 286 294 297 299 302
191 181 181 179 199 207 217 215 242 241 243 210 210 255 215 189 240 253 243 231 230 232 237 228 231 226 222 204 229 216 237 218 196 245 260 271 280 278 276 282 280 279 273
243 228 193 185 184 204 215 223 197 218 245 228 222 240 240 203 231 252 253 251 247 236 233 242 271 238 242 237 228 227 241 232 210 240 252 264 273 271 269 274 270 263 253
228 248 251 208 204 196 223 206 215 205 218 232 222 231 222 224 230 233 240 243 255 236 229 237 251 230 247 245 235 235 236 237 230 227 251 260 270 264 259 261 262 252 247
241 242 255 274 239 217 205 223 201 217 216 233 239 238 240 223 231 238 235 227 241 248 232 217 228 237 244 244 242 241 235 237 236 230 251 254 262 262 257 253 253 245 244
232 209 228 256 268 255 225 229 237 215 215 227 237 245 253 250 234 235 238 235 228 240 246 239 227 229 237 240 242 243 240 237 240 240 238 256 260 260 258 253 248 242 241
245 241 230 220 234 264 264 229 249 243 227 222 229 233 239 254 257 245 239 243 237 230 239 242 239 236 235 237 241 243 245 245 241 241 242 246 259 262 256 251 251 244 238
228 236 241 241 247 237 233 246 251 263 256 243 238 230 241 241 250 253 253 246 244 236 233 239 242 238 242 243 240 242 245 248 247 242 242 247 245 254 261 253 248 244 242
232 230 228 226 230 236 240 236 250 255 265 266 259 246 240 247 250 251 250 251 245 241 239 241 241 241 241 240 234 239 236 247 247 247 244 245 248 248 247 257 252 248 244
259 249 247 246 243 244 245 241 240 259 261 265 269 267 248 241 251 257 252 254 255 247 238 237 243 241 239 237 224 229 232 242 249 245 245 245 246 250 246 247 251 246 244
246 252 249 246 242 236 235 237 240 237 257 266 264 268 270 257 243 243 254 254 258 257 246 237 240 242 240 236 233 223 213 230 243 247 245 244 242 245 249 244 246 248 247
273 258 250 252 260 254 247 247 250 251 248 252 274 278 277 276 275 264 251 249 255 253 252 249 238 244 238 240 235 239 233 243 215 228 237 237 238 239 244 246 244 244 243
293 292 282 278 276 293 287 277 269 261 255 252 247 252 266 269 275 279 280 273 250 252 250 248 243 242 240 241 247 244 241 232 232 240 238 236 233 235 240 246 247 245 242
285 294 294 291 278 267 276 286 293 291 282 271 266 259 255 262 265 270 272 274 267 260 253 253 249 249 251 248 245 248 251 243 235 230 233 242 242 245 239 239 246 248 243